QPF
0.00 0.00 0.00 0.00 0.00 0.00 0.00 0.00 0.00 0.00 0.00 0.00 0.00 0.00 0.00 0.00 0.00 0.00 0.00 0.00 0.00 0.00 0.00 0.00 0.00 0.00 0.00 0.00 0.00 0.00 0.00 0.00 0.01 0.01 0.01 0.01 0.01 0.01 0.02 0.02 0.02 0.01 0.01 0.01 0.01 0.01 0.01 0.01 0.00
0.00 0.00 0.00 0.00 0.00 0.00 0.00 0.00 0.00 0.00 0.00 0.00 0.00 0.00 0.00 0.00 0.00 0.00 0.00 0.00 0.00 0.00 0.00 0.00 0.00 0.00 0.00 0.00 0.00 0.00 0.00 0.00 0.00 0.01 0.01 0.01 0.01 0.01 0.01 0.01 0.02 0.02 0.01 0.01 0.01 0.01 0.01 0.00 0.00
0.00 0.01 0.01 0.00 0.00 0.00 0.00 0.00 0.00 0.00 0.00 0.00 0.00 0.00 0.00 0.00 0.00 0.00 0.00 0.00 0.00 0.00 0.00 0.00 0.00 0.00 0.00 0.00 0.00 0.00 0.00 0.00 0.00 0.01 0.01 0.01 0.01 0.01 0.01 0.01 0.02 0.02 0.01 0.01 0.01 0.01 0.01 0.01 0.00
0.01 0.01 0.01 0.00 0.00 0.00 0.00 0.00 0.00 0.00 0.00 0.00 0.00 0.00 0.00 0.00 0.00 0.00 0.00 0.00 0.00 0.00 0.00 0.00 0.00 0.00 0.00 0.00 0.00 0.01 0.00 0.00 0.00 0.01 0.01 0.00 0.01 0.01 0.01 0.01 0.01 0.02 0.01 0.01 0.01 0.01 0.01 0.01 0.01
0.01 0.01 0.01 0.00 0.00 0.00 0.00 0.00 0.00 0.00 0.00 0.00 0.00 0.00 0.00 0.00 0.00 0.00 0.00 0.00 0.00 0.00 0.00 0.00 0.00 0.00 0.00 0.00 0.00 0.00 0.00 0.00 0.00 0.00 0.01 0.01 0.01 0.01 0.01 0.01 0.01 0.01 0.01 0.01 0.01 0.01 0.01 0.00 0.00
0.01 0.01 0.00 0.00 0.00 0.00 0.00 0.00 0.00 0.00 0.00 0.00 0.00 0.00 0.00 0.00 0.00 0.00 0.00 0.00 0.00 0.00 0.00 0.00 0.00 0.00 0.00 0.00 0.00 0.00 0.00 0.00 0.00 0.00 0.01 0.01 0.01 0.01 0.01 0.01 0.01 0.01 0.01 0.01 0.01 0.01 0.01 0.00 0.00
0.01 0.00 0.00 0.00 0.00 0.00 0.00 0.00 0.00 0.00 0.00 0.00 0.00 0.00 0.00 0.00 0.00 0.00 0.00 0.00 0.00 0.00 0.00 0.00 0.00 0.00 0.00 0.00 0.00 0.00 0.00 0.00 0.00 0.00 0.01 0.01 0.01 0.01 0.01 0.01 0.01 0.01 0.01 0.01 0.01 0.01 0.01 0.01 0.01
0.00 0.00 0.00 0.00 0.00 0.00 0.00 0.00 0.00 0.00 0.00 0.00 0.00 0.00 0.00 0.00 0.00 0.00 0.00 0.00 0.00 0.00 0.00 0.00 0.00 0.00 0.00 0.00 0.01 0.00 0.00 0.00 0.00 0.00 0.00 0.00 0.00 0.00 0.00 0.00 0.01 0.01 0.00 0.01 0.01 0.01 0.01 0.00 0.00
0.00 0.01 0.00 0.00 0.00 0.00 0.00 0.00 0.00 0.00 0.00 0.00 0.00 0.00 0.00 0.00 0.00 0.00 0.00 0.00 0.00 0.01 0.00 0.00 0.00 0.00 0.00 0.00 0.00 0.01 0.00 0.00 0.00 0.00 0.00 0.00 0.00 0.00 0.00 0.00 0.00 0.00 0.00 0.01 0.01 0.01 0.01 0.01 0.00
0.00 0.00 0.00 0.00 0.00 0.00 0.00 0.00 0.00 0.00 0.00 0.00 0.00 0.00 0.00 0.00 0.00 0.00 0.00 0.00 0.00 0.00 0.00 0.00 0.00 0.00 0.00 0.01 0.00 0.00 0.01 0.01 0.00 0.00 0.00 0.00 0.00 0.00 0.00 0.00 0.00 0.00 0.00 0.01 0.01 0.01 0.01 0.01 0.01
0.00 0.00 0.00 0.00 0.00 0.00 0.00 0.00 0.00 0.00 0.00 0.00 0.00 0.00 0.00 0.01 0.01 0.01 0.00 0.00 0.00 0.00 0.00 0.00 0.00 0.00 0.01 0.01 0.01 0.00 0.00 0.00 0.00 0.00 0.01 0.01 0.00 0.00 0.00 0.00 0.00 0.00 0.00 0.00 0.01 0.01 0.01 0.01 0.01
0.01 0.00 0.00 0.00 0.00 0.00 0.00 0.00 0.00 0.00 0.00 0.00 0.00 0.00 0.00 0.00 0.00 0.00 0.00 0.01 0.01 0.01 0.00 0.00 0.00 0.00 0.00 0.01 0.01 0.01 0.00 0.00 0.00 0.00 0.01 0.01 0.01 0.01 0.00 0.00 0.00 0.00 0.00 0.00 0.00 0.00 0.01 0.01 0.01
0.01 0.00 0.00 0.00 0.00 0.00 0.00 0.00 0.00 0.00 0.00 0.00 0.00 0.00 0.00 0.00 0.00 0.01 0.01 0.01 0.01 0.01 0.01 0.01 0.00 0.00 0.00 0.01 0.01 0.01 0.01 0.00 0.00 0.01 0.01 0.01 0.01 0.02 0.01 0.01 0.01 0.00 0.00 0.00 0.00 0.00 0.01 0.01 0.02
0.00 0.00 0.00 0.00 0.00 0.00 0.00 0.00 0.00 0.00 0.00 0.00 0.00 0.00 0.00 0.00 0.00 0.00 0.00 0.00 0.00 0.00 0.01 0.01 0.01 0.01 0.01 0.01 0.01 0.01 0.01 0.01 0.01 0.01 0.00 0.01 0.01 0.01 0.02 0.02 0.02 0.01 0.01 0.00 0.00 0.01 0.02 0.02 0.02
0.00 0.00 0.00 0.00 0.00 0.00 0.00 0.00 0.00 0.00 0.00 0.00 0.00 0.00 0.00 0.00 0.00 0.00 0.00 0.00 0.00 0.00 0.01 0.01 0.01 0.01 0.01 0.01 0.01 0.02 0.01 0.01 0.01 0.01 0.01 0.01 0.01 0.01 0.01 0.01 0.01 0.01 0.02 0.01 0.01 0.02 0.02 0.03 0.04
0.00 0.00 0.00 0.00 0.00 0.00 0.00 0.00 0.00 0.00 0.00 0.00 0.00 0.00 0.00 0.00 0.00 0.00 0.00 0.00 0.00 0.00 0.01 0.01 0.01 0.02 0.01 0.01 0.01 0.01 0.02 0.01 0.01 0.01 0.01 0.00 0.00 0.00 0.00 0.00 0.01 0.01 0.01 0.02 0.02 0.02 0.03 0.03 0.04
0.00 0.00 0.00 0.00 0.00 0.00 0.00 0.00 0.00 0.00 0.00 0.00 0.00 0.00 0.00 0.00 0.00 0.00 0.00 0.00 0.00 0.00 0.01 0.01 0.01 0.01 0.01 0.01 0.01 0.02 0.03 0.03 0.02 0.01 0.01 0.00 0.00 0.00 0.00 0.00 0.01 0.01 0.01 0.01 0.02 0.02 0.03 0.04 0.05
0.00 0.00 0.00 0.00 0.00 0.00 0.00 0.00 0.00 0.00 0.00 0.00 0.00 0.00 0.00 0.00 0.00 0.00 0.00 0.00 0.00 0.00 0.00 0.01 0.01 0.01 0.01 0.01 0.02 0.01 0.02 0.03 0.03 0.02 0.02 0.01 0.01 0.01 0.00 0.00 0.00 0.01 0.01 0.02 0.02 0.02 0.03 0.04 0.06
0.00 0.00 0.00 0.00 0.00 0.00 0.00 0.00 0.00 0.00 0.00 0.00 0.00 0.00 0.00 0.00 0.00 0.00 0.00 0.00 0.00 0.00 0.00 0.00 0.01 0.01 0.01 0.01 0.01 0.00 0.01 0.02 0.03 0.03 0.03 0.03 0.02 0.01 0.00 0.00 0.00 0.01 0.01 0.02 0.02 0.02 0.03 0.03 0.04
0.01 0.01 0.00 0.00 0.00 0.00 0.00 0.00 0.00 0.00 0.00 0.00 0.00 0.00 0.00 0.00 0.00 0.00 0.00 0.00 0.00 0.00 0.00 0.00 0.01 0.01 0.01 0.00 0.00 0.00 0.01 0.03 0.05 0.05 0.04 0.03 0.02 0.01 0.01 0.01 0.01 0.01 0.01 0.01 0.01 0.02 0.02 0.02 0.03
0.01 0.00 0.00 0.00 0.00 0.00 0.00 0.00 0.00 0.00 0.00 0.00 0.00 0.00 0.00 0.00 0.00 0.00 0.00 0.00 0.00 0.00 0.00 0.00 0.00 0.01 0.02 0.01 0.01 0.01 0.01 0.02 0.03 0.05 0.05 0.04 0.03 0.02 0.02 0.01 0.01 0.01 0.01 0.01 0.01 0.01 0.01 0.02 0.02
0.01 0.00 0.00 0.00 0.01 0.00 0.00 0.00 0.00 0.00 0.00 0.00 0.00 0.00 0.00 0.00 0.00 0.00 0.00 0.00 0.00 0.00 0.00 0.00 0.00 0.00 0.01 0.02 0.01 0.00 0.00 0.01 0.02 0.03 0.03 0.04 0.04 0.03 0.02 0.02 0.02 0.02 0.02 0.01 0.01 0.01 0.01 0.02 0.02
0.01 0.00 0.01 0.01 0.01 0.01 0.01 0.01 0.00 0.00 0.00 0.00 0.00 0.00 0.00 0.00 0.00 0.00 0.00 0.00 0.00 0.00 0.00 0.00 0.00 0.00 0.00 0.01 0.02 0.01 0.01 0.01 0.02 0.02 0.03 0.04 0.04 0.05 0.05 0.05 0.05 0.05 0.03 0.03 0.03 0.03 0.03 0.02 0.02
0.01 0.01 0.01 0.01 0.02 0.02 0.00 0.01 0.00 0.00 0.00 0.00 0.00 0.00 0.00 0.00 0.00 0.00 0.00 0.00 0.00 0.00 0.00 0.00 0.00 0.00 0.00 0.00 0.01 0.02 0.01 0.01 0.03 0.03 0.03 0.06 0.06 0.08 0.09 0.10 0.08 0.07 0.05 0.04 0.03 0.04 0.04 0.03 0.03
0.01 0.03 0.04 0.03 0.03 0.01 0.00 0.00 0.00 0.00 0.00 0.00 0.00 0.00 0.00 0.00 0.00 0.00 0.00 0.00 0.00 0.00 0.00 0.00 0.00 0.00 0.00 0.00 0.00 0.01 0.02 0.02 0.03 0.05 0.04 0.06 0.06 0.06 0.06 0.05 0.05 0.05 0.04 0.03 0.02 0.03 0.03 0.03 0.02
0.01 0.02 0.03 0.02 0.01 0.00 0.00 0.00 0.00 0.00 0.00 0.00 0.00 0.00 0.00 0.00 0.00 0.00 0.00 0.00 0.00 0.00 0.00 0.00 0.00 0.00 0.00 0.00 0.00 0.01 0.02 0.02 0.02 0.03 0.04 0.04 0.06 0.06 0.05 0.05 0.05 0.04 0.03 0.02 0.02 0.02 0.02 0.02 0.02
0.02 0.01 0.01 0.02 0.01 0.00 0.00 0.00 0.00 0.00 0.00 0.00 0.00 0.00 0.00 0.00 0.00 0.00 0.00 0.00 0.00 0.00 0.00 0.00 0.00 0.00 0.00 0.00 0.00 0.00 0.01 0.01 0.01 0.01 0.02 0.03 0.03 0.04 0.04 0.04 0.04 0.04 0.04 0.03 0.03 0.02 0.02 0.02 0.02
0.01 0.02 0.02 0.03 0.02 0.01 0.01 0.01 0.01 0.01 0.00 0.00 0.00 0.00 0.00 0.00 0.00 0.00 0.00 0.00 0.00 0.00 0.00 0.00 0.00 0.00 0.00 0.00 0.00 0.00 0.00 0.00 0.01 0.01 0.01 0.01 0.02 0.02 0.02 0.02 0.02 0.02 0.03 0.03 0.03 0.03 0.02 0.02 0.02
0.02 0.03 0.03 0.03 0.02 0.02 0.02 0.03 0.03 0.02 0.00 0.00 0.00 0.00 0.00 0.00 0.00 0.00 0.00 0.00 0.00 0.00 0.00 0.00 0.00 0.01 0.00 0.00 0.00 0.00 0.00 0.00 0.00 0.01 0.01 0.01 0.01 0.01 0.01 0.01 0.01 0.01 0.01 0.02 0.02 0.02 0.02 0.02 0.02
0.03 0.03 0.03 0.03 0.02 0.02 0.02 0.03 0.03 0.02 0.01 0.01 0.00 0.00 0.00 0.00 0.00 0.00 0.00 0.00 0.00 0.00 0.00 0.00 0.00 0.00 0.01 0.01 0.00 0.00 0.00 0.00 0.00 0.01 0.01 0.01 0.01 0.01 0.00 0.01 0.01 0.01 0.01 0.01 0.02 0.02 0.02 0.02 0.02
MSLP
1011.67 1012.33 1013.07 1013.77 1014.28 1014.50 1014.38 1013.94 1013.25 1012.43 1011.60 1010.90 1010.40 1010.11 1010.01 1010.02 1010.04 1010.02 1009.89 1009.68 1009.43 1009.20 1009.07 1009.10 1009.32 1009.69 1010.16 1010.67 1011.16 1011.58 1011.93 1012.22 1012.48 1012.76 1013.07 1013.44 1013.82 1014.20 1014.52 1014.76 1014.92 1015.00 1015.04 1015.09 1015.18 1015.33 1015.56 1015.84 1016.14
1011.90 1012.61 1013.34 1013.95 1014.31 1014.34 1014.01 1013.36 1012.49 1011.55 1010.67 1009.97 1009.51 1009.30 1009.27 1009.35 1009.44 1009.46 1009.38 1009.21 1009.00 1008.84 1008.78 1008.90 1009.19 1009.64 1010.19 1010.76 1011.30 1011.75 1012.13 1012.43 1012.70 1012.98 1013.29 1013.63 1013.99 1014.34 1014.63 1014.85 1015.00 1015.09 1015.16 1015.23 1015.36 1015.55 1015.80 1016.10 1016.40
1012.18 1012.88 1013.54 1014.02 1014.21 1014.04 1013.52 1012.71 1011.74 1010.74 1009.86 1009.21 1008.82 1008.68 1008.72 1008.86 1008.98 1009.02 1008.96 1008.82 1008.65 1008.54 1008.56 1008.76 1009.13 1009.66 1010.26 1010.88 1011.45 1011.93 1012.31 1012.62 1012.88 1013.14 1013.42 1013.72 1014.03 1014.34 1014.60 1014.80 1014.95 1015.06 1015.17 1015.31 1015.49 1015.74 1016.03 1016.36 1016.68
1012.49 1013.14 1013.68 1013.99 1013.99 1013.65 1012.98 1012.08 1011.06 1010.09 1009.27 1008.71 1008.41 1008.34 1008.44 1008.60 1008.73 1008.77 1008.71 1008.58 1008.45 1008.39 1008.48 1008.74 1009.18 1009.75 1010.39 1011.03 1011.60 1012.08 1012.45 1012.74 1012.98 1013.21 1013.45 1013.71 1013.98 1014.25 1014.48 1014.67 1014.83 1014.98 1015.14 1015.34 1015.59 1015.90 1016.25 1016.61 1016.94
1012.79 1013.33 1013.72 1013.85 1013.68 1013.19 1012.43 1011.50 1010.52 1009.64 1008.94 1008.49 1008.29 1008.30 1008.43 1008.59 1008.70 1008.72 1008.65 1008.52 1008.42 1008.40 1008.54 1008.85 1009.33 1009.92 1010.56 1011.18 1011.73 1012.18 1012.52 1012.78 1013.00 1013.21 1013.43 1013.66 1013.91 1014.14 1014.35 1014.54 1014.71 1014.90 1015.11 1015.37 1015.69 1016.06 1016.45 1016.84 1017.19
1013.03 1013.43 1013.65 1013.61 1013.29 1012.70 1011.91 1011.02 1010.14 1009.39 1008.85 1008.54 1008.44 1008.51 1008.66 1008.79 1008.87 1008.84 1008.74 1008.62 1008.53 1008.55 1008.73 1009.06 1009.55 1010.13 1010.74 1011.31 1011.81 1012.21 1012.52 1012.77 1012.98 1013.18 1013.40 1013.63 1013.87 1014.10 1014.30 1014.50 1014.68 1014.89 1015.14 1015.44 1015.81 1016.22 1016.64 1017.04 1017.40
1013.16 1013.42 1013.47 1013.28 1012.85 1012.21 1011.44 1010.64 1009.91 1009.33 1008.95 1008.77 1008.77 1008.88 1009.02 1009.12 1009.14 1009.07 1008.94 1008.81 1008.74 1008.78 1008.98 1009.32 1009.79 1010.33 1010.88 1011.39 1011.83 1012.18 1012.46 1012.70 1012.93 1013.16 1013.41 1013.67 1013.93 1014.17 1014.39 1014.58 1014.77 1014.99 1015.25 1015.57 1015.95 1016.37 1016.81 1017.22 1017.57
1013.18 1013.30 1013.21 1012.90 1012.39 1011.74 1011.04 1010.36 1009.78 1009.38 1009.16 1009.11 1009.18 1009.30 1009.41 1009.46 1009.42 1009.31 1009.16 1009.02 1008.96 1009.03 1009.23 1009.57 1010.00 1010.49 1010.96 1011.40 1011.77 1012.08 1012.35 1012.60 1012.87 1013.16 1013.47 1013.78 1014.09 1014.36 1014.59 1014.79 1014.98 1015.19 1015.44 1015.75 1016.11 1016.52 1016.95 1017.35 1017.70
1013.09 1013.09 1012.89 1012.49 1011.95 1011.33 1010.71 1010.16 1009.75 1009.50 1009.41 1009.45 1009.56 1009.68 1009.76 1009.75 1009.66 1009.51 1009.34 1009.21 1009.16 1009.24 1009.45 1009.76 1010.15 1010.57 1010.97 1011.33 1011.65 1011.93 1012.20 1012.49 1012.81 1013.17 1013.56 1013.94 1014.30 1014.61 1014.87 1015.07 1015.25 1015.44 1015.66 1015.94 1016.27 1016.66 1017.06 1017.44 1017.77
1012.91 1012.83 1012.55 1012.11 1011.57 1011.00 1010.47 1010.05 1009.77 1009.65 1009.66 1009.75 1009.87 1009.97 1010.00 1009.95 1009.82 1009.64 1009.46 1009.34 1009.31 1009.40 1009.59 1009.88 1010.22 1010.57 1010.91 1011.21 1011.48 1011.74 1012.03 1012.36 1012.74 1013.17 1013.63 1014.08 1014.50 1014.85 1015.13 1015.34 1015.51 1015.68 1015.87 1016.11 1016.41 1016.75 1017.12 1017.48 1017.80
1012.68 1012.55 1012.24 1011.79 1011.28 1010.77 1010.33 1010.01 1009.83 1009.79 1009.85 1009.96 1010.07 1010.14 1010.13 1010.04 1009.88 1009.69 1009.53 1009.42 1009.40 1009.49 1009.67 1009.93 1010.22 1010.51 1010.78 1011.04 1011.28 1011.54 1011.84 1012.20 1012.64 1013.12 1013.64 1014.14 1014.60 1014.99 1015.29 1015.51 1015.68 1015.84 1016.01 1016.23 1016.50 1016.81 1017.15 1017.49 1017.80
1012.44 1012.30 1011.98 1011.56 1011.10 1010.65 1010.29 1010.04 1009.92 1009.91 1009.98 1010.08 1010.17 1010.20 1010.15 1010.04 1009.87 1009.70 1009.54 1009.45 1009.44 1009.53 1009.69 1009.90 1010.15 1010.39 1010.62 1010.84 1011.06 1011.32 1011.63 1012.02 1012.48 1012.99 1013.53 1014.06 1014.54 1014.95 1015.27 1015.52 1015.71 1015.88 1016.06 1016.28 1016.54 1016.84 1017.15 1017.47 1017.77
1012.20 1012.07 1011.79 1011.42 1011.02 1010.63 1010.33 1010.12 1010.01 1010.00 1010.05 1010.11 1010.16 1010.15 1010.09 1009.97 1009.81 1009.65 1009.51 1009.43 1009.43 1009.50 1009.62 1009.80 1010.00 1010.20 1010.41 1010.61 1010.83 1011.10 1011.42 1011.81 1012.26 1012.77 1013.30 1013.81 1014.29 1014.71 1015.06 1015.34 1015.57 1015.79 1016.01 1016.26 1016.53 1016.83 1017.14 1017.45 1017.72
1011.97 1011.87 1011.65 1011.35 1011.01 1010.69 1010.42 1010.22 1010.10 1010.05 1010.04 1010.05 1010.05 1010.01 1009.94 1009.82 1009.69 1009.54 1009.42 1009.35 1009.33 1009.37 1009.46 1009.60 1009.76 1009.94 1010.14 1010.35 1010.59 1010.86 1011.18 1011.56 1011.98 1012.45 1012.93 1013.41 1013.86 1014.27 1014.64 1014.97 1015.27 1015.56 1015.86 1016.16 1016.48 1016.80 1017.12 1017.41 1017.67
1011.73 1011.69 1011.54 1011.32 1011.06 1010.79 1010.54 1010.32 1010.16 1010.04 1009.96 1009.90 1009.85 1009.78 1009.70 1009.59 1009.48 1009.36 1009.25 1009.16 1009.12 1009.12 1009.17 1009.27 1009.41 1009.59 1009.80 1010.04 1010.30 1010.60 1010.92 1011.28 1011.66 1012.06 1012.48 1012.89 1013.30 1013.70 1014.09 1014.47 1014.85 1015.23 1015.62 1016.00 1016.38 1016.74 1017.07 1017.36 1017.61
1011.48 1011.50 1011.44 1011.31 1011.12 1010.90 1010.65 1010.41 1010.18 1009.98 1009.81 1009.66 1009.55 1009.45 1009.36 1009.26 1009.16 1009.06 1008.95 1008.85 1008.77 1008.73 1008.74 1008.80 1008.93 1009.13 1009.37 1009.66 1009.98 1010.31 1010.65 1010.98 1011.31 1011.64 1011.98 1012.32 1012.67 1013.05 1013.46 1013.89 1014.34 1014.82 1015.30 1015.77 1016.21 1016.62 1016.97 1017.27 1017.50
1011.20 1011.30 1011.34 1011.30 1011.19 1011.01 1010.77 1010.48 1010.17 1009.87 1009.59 1009.35 1009.16 1009.01 1008.90 1008.81 1008.72 1008.62 1008.51 1008.39 1008.28 1008.19 1008.17 1008.22 1008.35 1008.58 1008.87 1009.23 1009.61 1009.99 1010.35 1010.67 1010.96 1011.22 1011.47 1011.73 1012.03 1012.38 1012.78 1013.25 1013.78 1014.33 1014.89 1015.44 1015.94 1016.39 1016.78 1017.08 1017.31
1010.89 1011.08 1011.22 1011.29 1011.26 1011.12 1010.87 1010.53 1010.13 1009.71 1009.31 1008.96 1008.68 1008.48 1008.34 1008.24 1008.16 1008.07 1007.95 1007.82 1007.68 1007.58 1007.53 1007.57 1007.72 1007.98 1008.34 1008.76 1009.21 1009.65 1010.03 1010.36 1010.61 1010.81 1010.99 1011.18 1011.41 1011.72 1012.11 1012.60 1013.15 1013.76 1014.38 1014.98 1015.54 1016.02 1016.43 1016.76 1017.01
1010.57 1010.86 1011.11 1011.28 1011.33 1011.23 1010.97 1010.57 1010.07 1009.52 1008.98 1008.51 1008.14 1007.87 1007.69 1007.59 1007.52 1007.44 1007.34 1007.21 1007.08 1006.96 1006.91 1006.96 1007.13 1007.43 1007.84 1008.32 1008.82 1009.30 1009.72 1010.04 1010.26 1010.42 1010.53 1010.65 1010.83 1011.08 1011.45 1011.92 1012.48 1013.10 1013.74 1014.37 1014.95 1015.46 1015.90 1016.26 1016.54
1010.24 1010.62 1010.99 1011.27 1011.40 1011.33 1011.06 1010.60 1009.99 1009.31 1008.64 1008.04 1007.56 1007.22 1007.02 1006.91 1006.86 1006.82 1006.76 1006.67 1006.56 1006.47 1006.43 1006.49 1006.68 1007.00 1007.44 1007.95 1008.48 1008.98 1009.41 1009.72 1009.92 1010.03 1010.10 1010.16 1010.28 1010.48 1010.80 1011.23 1011.76 1012.36 1012.98 1013.60 1014.18 1014.70 1015.16 1015.55 1015.89
1009.90 1010.39 1010.86 1011.24 1011.44 1011.41 1011.12 1010.59 1009.88 1009.08 1008.27 1007.55 1006.98 1006.59 1006.37 1006.28 1006.28 1006.31 1006.32 1006.30 1006.26 1006.21 1006.20 1006.28 1006.48 1006.79 1007.22 1007.72 1008.23 1008.72 1009.11 1009.40 1009.57 1009.65 1009.67 1009.69 1009.75 1009.90 1010.16 1010.54 1011.00 1011.54 1012.11 1012.68 1013.23 1013.75 1014.22 1014.64 1015.03
1009.56 1010.13 1010.70 1011.16 1011.42 1011.41 1011.10 1010.52 1009.72 1008.81 1007.90 1007.09 1006.45 1006.02 1005.81 1005.77 1005.84 1005.97 1006.09 1006.18 1006.23 1006.26 1006.30 1006.39 1006.57 1006.85 1007.22 1007.65 1008.10 1008.51 1008.85 1009.08 1009.21 1009.25 1009.24 1009.22 1009.25 1009.35 1009.55 1009.85 1010.23 1010.68 1011.17 1011.68 1012.18 1012.66 1013.13 1013.57 1014.00
1009.18 1009.82 1010.45 1010.97 1011.27 1011.28 1010.96 1010.34 1009.49 1008.51 1007.53 1006.67 1006.00 1005.57 1005.39 1005.42 1005.60 1005.86 1006.12 1006.34 1006.50 1006.61 1006.70 1006.80 1006.95 1007.16 1007.43 1007.75 1008.08 1008.38 1008.61 1008.77 1008.83 1008.84 1008.80 1008.76 1008.76 1008.82 1008.97 1009.19 1009.50 1009.85 1010.25 1010.66 1011.09 1011.52 1011.96 1012.40 1012.86
1008.77 1009.43 1010.10 1010.64 1010.97 1010.98 1010.66 1010.04 1009.17 1008.17 1007.18 1006.32 1005.66 1005.28 1005.17 1005.29 1005.59 1005.98 1006.38 1006.74 1007.02 1007.22 1007.35 1007.45 1007.55 1007.66 1007.81 1007.98 1008.14 1008.30 1008.41 1008.46 1008.46 1008.42 1008.36 1008.31 1008.30 1008.34 1008.44 1008.61 1008.83 1009.10 1009.39 1009.71 1010.05 1010.41 1010.80 1011.21 1011.66
1008.31 1008.95 1009.61 1010.15 1010.47 1010.50 1010.21 1009.61 1008.78 1007.83 1006.89 1006.08 1005.50 1005.19 1005.17 1005.39 1005.80 1006.31 1006.84 1007.31 1007.69 1007.96 1008.13 1008.22 1008.25 1008.26 1008.26 1008.27 1008.27 1008.26 1008.23 1008.18 1008.10 1008.02 1007.95 1007.90 1007.88 1007.92 1008.00 1008.12 1008.27 1008.46 1008.66 1008.88 1009.13 1009.40 1009.72 1010.08 1010.47
1007.84 1008.41 1009.00 1009.51 1009.82 1009.87 1009.62 1009.09 1008.36 1007.52 1006.71 1006.02 1005.56 1005.35 1005.42 1005.74 1006.23 1006.82 1007.42 1007.97 1008.41 1008.72 1008.90 1008.97 1008.94 1008.85 1008.72 1008.57 1008.41 1008.24 1008.08 1007.92 1007.78 1007.66 1007.57 1007.52 1007.51 1007.55 1007.62 1007.71 1007.82 1007.94 1008.06 1008.20 1008.35 1008.54 1008.77 1009.05 1009.37
1007.38 1007.84 1008.35 1008.79 1009.08 1009.15 1008.97 1008.57 1008.00 1007.35 1006.72 1006.21 1005.89 1005.81 1005.96 1006.33 1006.86 1007.46 1008.08 1008.63 1009.08 1009.39 1009.56 1009.60 1009.52 1009.34 1009.11 1008.84 1008.55 1008.25 1007.97 1007.72 1007.50 1007.34 1007.24 1007.19 1007.19 1007.22 1007.29 1007.37 1007.45 1007.52 1007.58 1007.65 1007.73 1007.83 1007.97 1008.15 1008.37
1007.02 1007.34 1007.72 1008.07 1008.33 1008.44 1008.37 1008.14 1007.79 1007.37 1006.98 1006.69 1006.54 1006.58 1006.80 1007.17 1007.67 1008.22 1008.77 1009.26 1009.65 1009.92 1010.05 1010.05 1009.93 1009.71 1009.41 1009.06 1008.68 1008.29 1007.92 1007.59 1007.31 1007.10 1006.97 1006.90 1006.89 1006.92 1006.98 1007.04 1007.10 1007.14 1007.16 1007.18 1007.19 1007.23 1007.28 1007.37 1007.50
1006.83 1006.98 1007.22 1007.48 1007.71 1007.86 1007.93 1007.90 1007.80 1007.67 1007.56 1007.50 1007.53 1007.67 1007.92 1008.25 1008.65 1009.07 1009.48 1009.83 1010.11 1010.30 1010.37 1010.34 1010.20 1009.96 1009.64 1009.26 1008.83 1008.39 1007.95 1007.56 1007.22 1006.95 1006.76 1006.65 1006.61 1006.61 1006.65 1006.69 1006.72 1006.74 1006.73 1006.72 1006.70 1006.68 1006.68 1006.70 1006.74
1006.87 1006.84 1006.92 1007.09 1007.29 1007.50 1007.72 1007.91 1008.09 1008.26 1008.43 1008.61 1008.82 1009.04 1009.28 1009.53 1009.78 1010.01 1010.22 1010.39 1010.52 1010.59 1010.60 1010.53 1010.39 1010.16 1009.85 1009.48 1009.04 1008.57 1008.10 1007.64 1007.23 1006.89 1006.63 1006.44 1006.33 1006.28 1006.26 1006.27 1006.27 1006.26 1006.24 1006.21 1006.17 1006.12 1006.08 1006.06 1006.04
Thickness
5717 5719 5720 5713 5698 5685 5691 5709 5725 5735 5740 5750 5753 5750 5744 5742 5742 5738 5752 5760 5760 5758 5757 5756 5755 5754 5754 5753 5752 5752 5751 5751 5750 5750 5749 5749 5748 5747 5747 5746 5745 5745 5744 5743 5743 5742 5741 5740 5740
5711 5713 5708 5698 5684 5677 5690 5711 5723 5733 5742 5748 5748 5745 5740 5739 5747 5748 5751 5755 5757 5755 5754 5753 5752 5751 5750 5750 5749 5748 5748 5747 5747 5746 5746 5745 5745 5744 5743 5742 5742 5741 5740 5740 5739 5738 5737 5737 5736
5706 5706 5694 5684 5678 5681 5698 5717 5724 5735 5742 5744 5740 5739 5737 5737 5744 5747 5751 5752 5752 5751 5750 5749 5748 5748 5747 5746 5746 5745 5744 5744 5743 5742 5742 5741 5741 5740 5740 5739 5738 5737 5737 5736 5735 5734 5733 5733 5732
5697 5691 5684 5675 5680 5693 5707 5719 5725 5731 5737 5739 5735 5728 5733 5742 5745 5747 5749 5748 5746 5745 5745 5745 5744 5744 5743 5742 5742 5741 5740 5740 5739 5739 5738 5738 5737 5736 5736 5735 5734 5733 5733 5732 5731 5730 5729 5729 5729
5686 5677 5670 5668 5680 5696 5708 5717 5723 5724 5728 5732 5729 5721 5724 5737 5744 5744 5743 5743 5741 5740 5740 5740 5739 5739 5738 5738 5737 5737 5736 5735 5735 5734 5734 5733 5733 5732 5732 5731 5730 5729 5729 5728 5727 5726 5725 5725 5725
5670 5667 5659 5662 5678 5695 5706 5715 5717 5717 5720 5725 5722 5715 5718 5730 5734 5736 5738 5737 5737 5736 5735 5735 5734 5734 5733 5733 5732 5732 5731 5731 5730 5730 5729 5729 5728 5728 5727 5727 5726 5725 5724 5724 5723 5722 5721 5721 5720
5661 5658 5658 5666 5676 5686 5701 5711 5709 5710 5713 5718 5720 5708 5712 5721 5728 5731 5731 5731 5730 5730 5730 5729 5729 5728 5728 5728 5727 5727 5726 5726 5725 5725 5724 5724 5723 5723 5722 5722 5721 5720 5720 5719 5718 5717 5717 5716 5715
5661 5654 5658 5664 5672 5683 5698 5705 5709 5709 5709 5717 5717 5705 5704 5717 5722 5724 5723 5723 5723 5723 5723 5723 5723 5723 5723 5722 5722 5722 5721 5720 5720 5719 5719 5719 5718 5718 5717 5717 5716 5715 5715 5714 5713 5712 5712 5711 5710
5657 5644 5647 5662 5671 5681 5692 5695 5701 5707 5707 5709 5712 5712 5715 5718 5717 5715 5713 5713 5714 5715 5716 5717 5718 5717 5717 5717 5716 5716 5715 5715 5714 5714 5714 5713 5713 5712 5712 5711 5711 5710 5710 5709 5708 5707 5707 5706 5705
5644 5636 5651 5667 5673 5677 5683 5686 5691 5695 5695 5697 5701 5706 5710 5710 5710 5707 5706 5705 5706 5707 5709 5711 5712 5712 5712 5711 5711 5710 5710 5709 5709 5709 5708 5708 5707 5707 5706 5706 5705 5704 5704 5703 5702 5702 5701 5700 5699
5640 5640 5652 5662 5670 5673 5674 5677 5684 5684 5685 5690 5693 5696 5699 5700 5701 5701 5701 5702 5703 5704 5705 5706 5707 5707 5706 5706 5705 5705 5704 5704 5704 5703 5703 5702 5702 5701 5700 5700 5699 5698 5697 5697 5696 5695 5695 5694 5693
5635 5642 5650 5656 5662 5665 5666 5670 5672 5677 5683 5690 5693 5695 5694 5693 5694 5696 5696 5697 5698 5699 5700 5701 5702 5701 5701 5700 5700 5699 5699 5698 5698 5698 5697 5697 5696 5695 5694 5693 5693 5692 5691 5690 5690 5689 5689 5688 5687
5629 5636 5644 5649 5652 5656 5660 5660 5663 5670 5678 5683 5685 5686 5687 5688 5689 5690 5692 5692 5693 5694 5695 5696 5696 5696 5695 5695 5694 5694 5693 5693 5693 5692 5692 5691 5690 5689 5688 5687 5687 5686 5685 5684 5684 5683 5682 5682 5681
5625 5629 5633 5639 5643 5648 5649 5652 5656 5664 5670 5673 5676 5677 5679 5681 5683 5683 5684 5686 5688 5689 5689 5690 5691 5691 5690 5689 5689 5688 5688 5688 5687 5687 5686 5686 5685 5684 5682 5681 5681 5680 5679 5678 5677 5677 5676 5675 5674
5619 5617 5621 5629 5635 5639 5640 5640 5649 5659 5661 5663 5666 5669 5672 5675 5677 5679 5681 5682 5684 5684 5684 5685 5685 5685 5685 5684 5683 5683 5682 5682 5681 5681 5680 5680 5679 5678 5677 5675 5674 5674 5673 5672 5671 5670 5669 5668 5667
5605 5602 5604 5620 5626 5630 5626 5628 5646 5651 5652 5654 5657 5660 5664 5668 5671 5674 5676 5678 5679 5679 5679 5679 5680 5679 5678 5678 5677 5676 5676 5676 5675 5675 5674 5673 5672 5672 5671 5669 5668 5667 5666 5665 5663 5662 5660 5659 5658
5587 5585 5594 5608 5618 5620 5618 5623 5639 5644 5646 5647 5650 5653 5656 5660 5664 5667 5671 5672 5673 5673 5673 5672 5673 5672 5671 5671 5670 5669 5669 5668 5668 5668 5667 5666 5666 5665 5664 5662 5661 5660 5658 5657 5655 5654 5652 5651 5649
5574 5579 5589 5596 5608 5609 5610 5617 5629 5635 5638 5640 5643 5646 5650 5654 5659 5662 5664 5666 5666 5666 5667 5666 5665 5665 5664 5662 5661 5660 5660 5660 5660 5660 5660 5659 5658 5657 5656 5655 5653 5652 5650 5648 5647 5645 5644 5642 5641
5575 5578 5582 5590 5600 5600 5602 5609 5619 5626 5629 5632 5635 5639 5644 5650 5655 5656 5658 5659 5658 5658 5659 5659 5658 5657 5656 5654 5652 5650 5649 5650 5651 5651 5651 5651 5650 5649 5648 5647 5645 5643 5642 5640 5638 5636 5634 5632 5631
5567 5568 5572 5581 5590 5592 5592 5599 5611 5619 5625 5631 5634 5635 5639 5642 5646 5649 5650 5651 5652 5652 5652 5652 5651 5650 5649 5648 5646 5644 5643 5642 5642 5643 5642 5642 5642 5641 5640 5639 5637 5635 5633 5631 5629 5627 5624 5622 5621
5557 5558 5563 5569 5576 5580 5582 5588 5600 5613 5620 5626 5630 5634 5636 5639 5641 5642 5643 5643 5644 5644 5645 5646 5644 5643 5642 5641 5638 5635 5633 5631 5631 5632 5633 5633 5633 5632 5632 5630 5628 5626 5624 5622 5620 5618 5616 5612 5610
5547 5558 5561 5561 5556 5554 5567 5561 5587 5600 5608 5616 5620 5624 5629 5633 5636 5636 5636 5636 5636 5637 5637 5638 5637 5635 5634 5632 5630 5628 5625 5623 5623 5623 5624 5625 5625 5624 5623 5622 5620 5617 5615 5614 5612 5610 5607 5604 5601
5544 5551 5551 5550 5545 5542 5550 5549 5573 5588 5597 5608 5613 5617 5621 5625 5628 5629 5630 5630 5629 5628 5628 5628 5627 5626 5625 5624 5622 5620 5617 5616 5615 5615 5615 5615 5615 5615 5614 5613 5610 5608 5606 5604 5603 5600 5598 5596 5593
5536 5536 5533 5528 5526 5528 5543 5542 5559 5575 5592 5601 5606 5608 5611 5615 5617 5619 5620 5620 5619 5618 5618 5618 5617 5616 5615 5614 5612 5611 5609 5607 5605 5605 5605 5605 5605 5605 5605 5604 5601 5599 5597 5595 5593 5591 5589 5586 5584
5523 5516 5507 5507 5506 5516 5537 5539 5556 5576 5587 5593 5597 5598 5600 5603 5606 5607 5608 5608 5608 5608 5608 5607 5608 5606 5605 5604 5603 5602 5601 5599 5598 5597 5596 5595 5595 5595 5594 5593 5591 5589 5587 5586 5584 5582 5580 5577 5575
5509 5512 5503 5501 5504 5512 5528 5531 5551 5567 5577 5583 5585 5587 5589 5592 5594 5596 5598 5598 5598 5598 5597 5597 5597 5596 5595 5594 5593 5593 5592 5590 5589 5589 5588 5587 5586 5585 5584 5583 5581 5579 5578 5576 5574 5572 5570 5568 5565
5500 5501 5507 5498 5496 5502 5514 5529 5546 5559 5563 5567 5570 5573 5575 5578 5582 5584 5585 5587 5587 5587 5587 5587 5586 5586 5586 5585 5584 5583 5582 5581 5580 5579 5578 5577 5576 5576 5574 5573 5571 5569 5567 5565 5563 5561 5559 5557 5554
5497 5497 5491 5490 5491 5501 5514 5522 5530 5541 5547 5552 5556 5558 5561 5565 5567 5570 5572 5573 5574 5575 5575 5575 5575 5575 5575 5575 5574 5573 5572 5572 5571 5570 5568 5567 5566 5565 5563 5561 5559 5558 5556 5554 5552 5550 5548 5546 5543
5483 5486 5485 5481 5483 5490 5501 5513 5529 5531 5536 5538 5541 5545 5548 5551 5553 5555 5557 5559 5560 5561 5561 5562 5562 5562 5563 5563 5563 5562 5561 5561 5560 5559 5558 5557 5555 5553 5551 5550 5548 5546 5545 5543 5540 5538 5536 5534 5532
5473 5474 5473 5474 5475 5475 5482 5500 5520 5519 5524 5527 5528 5532 5535 5538 5539 5541 5543 5544 5545 5546 5547 5548 5549 5549 5550 5551 5551 5550 5550 5549 5548 5547 5546 5545 5543 5541 5539 5537 5536 5534 5532 5530 5528 5526 5524 5522 5519